Погода Канадей

Погода Канадей : погода сейчас, прогноз погоды и архив. Всё, что Вы хотите узнать о погоде Канадей!

Поиск расширенной информации на нашем сайте:

Другие новости

Новости СМИ2

Главная страница сайта

Новости сайта

03.07.2017

Напоминаем, что на нашем специализированном сайте Метеоцентр.Азия вы можете получить высокодетализированные автоматические прогнозы погоды по пунктам России, СНГ и мира в авиационном формате (включающие направление и скорость ветра, видимость, явления погоды, количество и форму облачности, нижнюю и верхнюю границу облачности).


Погода Канадей - сегодня

Время (UTC), дата Ветер
(°,м/с) 
Видим.   Явления Облачность Т
(°С)
Тd
(°С)
f(%) Тe
(°С)
Pmin
(гПа)
dP
(гПа)
Po
(мм)
O2
(г/м3)
Тmin Tmax R s Состояние
почвы
00 16.02.18 280 (З) 10 км    ясно 
-23.3 -26 78 -24  1044.5  0.5  773  342           
06 16.02.18 тихо ()   10 км    6/0 средняя, верхняя 
[Ac trans|Ci sp]
-22 -25.3 74 -22  1044.9  0.4  773  341  -25.2         
09 16.02.18 120 (ЮВ) 10 км    6/0 средняя 
[Ac trans]
-13.7 -18.9 65 -16  1044.1  -0.4  773  329           
12 16.02.18 130 (ЮВ) 10 км    3/0 верхняя 
[Ci sp]
-9.9 -15.2 65 -13  1043  -0.9  772  324           
18 16.02.18 120 (ЮВ) 10 км    9/0 средняя 
[Ac trans]
-13.3 -16.4 77 -15  1042.6  -0.3  772  328           
21 16.02.18 100 (В) 10 км    ясно 
-15.8 -18 83 -16  1042.6  -0.2  772  332           
00 17.02.18 120 (ЮВ) 10 км    4/0 верхняя 
[Ci sp]
-17.7 -19.7 84 -18  1042  -0.6  771  334           
06 17.02.18 130 (ЮВ) 10 км    8/0 средняя 
[Ac trans]
-16 -18.4 82 -16  1040.9  -0.2  771  331           
09 17.02.18 160 (Ю) 20000 м    9/0 средняя 
[Ac trans]
-10 -14.6 69 -10  1039.5  -1.1  770  323           
12 17.02.18 110 (В) 20000 м    10/0 средняя, верхняя 
[Ac trans|Ci sp]
-8.3 -13 69 -11  1037.8  -1.5  769  321           
18 17.02.18 110 (В) 10 км    3/0 верхняя 
[Ci sp]
-12.7 -14.7 85 -16  1036.6  -0.8  767  326           
21 17.02.18 140 (ЮВ) 10 км    3/0 верхняя 
[Ci sp]
-14.4 -15.9 88 -14  1035.7  -0.8  767  328           
00 18.02.18 120 (ЮВ) н/о    н/о 
-16.1 -17.8 87 -16  1035.1  -0.7  766  330           
06 18.02.18 110 (В) 10 км    8/0 средняя 
[Ac trans]
-13.4 -15.3 86 -17  1032.7  -0.9  765  325           
09 18.02.18 120 (ЮВ) 20000 м    10/0 средняя 
[Ac trans]
-10.5 -15.1 69 -15  1030.9  -1.7  763  321           
09 19.02.18 170 (Ю) 10 км    10/10 720 м 
[Sc]
-5.4 -8.4 79 -7  1022.6  757  312           
18 19.02.18 080 (В) 10 км  {снег}  10/0 средняя, верхняя 
[Ac trans|Ci fib]
-9.2 -10.2 92 -9  1021.4  -0.3  756  316           
21 19.02.18 320 (СЗ) 4000 м  дымка  10/0 средняя, верхняя 
[Ac trans|Ci fib]
-13.5 -14.9 89 -13  1020.8  -0.8  756  322           
00 20.02.18 290 (З) н/о    н/о 
-16.9 -18.8 85 -17  1020.6  -0.4  755  326           
06 20.02.18 тихо ()   4000 м  слаб. снег  9/0 средняя 
[Ac trans]
-13.4 -15.4 85 -13  1019.1  0.1  754  321           
09 20.02.18 100 (В) 4000 м  слаб. снег  9/0 средняя 
[Ac trans]
-5.5 -8.9 77 -5  1017.7  -1  754  311           
18 20.02.18 тихо ()   10 км  {снег}  3/0 верхняя 
[Ci sp]
-5.4 -7.6 84 -5  1017  0.4  753  310           
21 20.02.18 тихо ()   10 км    ясно 
-10.6 -12.6 85 -11  1017.9  0.6  754  317           
00 21.02.18 тихо ()   10 км    ясно 
-11.3 -11.9 95 -11  1018.6  0.7  754  318           
06 21.02.18 260 (З) 4000 м  дымка  8/0 средняя, верхняя 
[Ac trans|Ci sp]
-9.6 -11.7 85 -9  1019.6  0.8  755  316           
Время (UTC), дата Ветер
(°,м/с) 
Видим.   Явления Облачность Т
(°С)
Тd
(°С)
f(%) Тe
(°С)
Pmin
(гПа)
dP
(гПа)
Po
(мм)
O2
(г/м3)
Тmin Tmax R s Состояние
почвы

Для получения пояснительной информации подведите курсор к названию столбца.

ПОГОДА Канадей - архив

Всё, что Вы хотите узнать о погоде Канадей - удобно и подробно!

Выберите нужную дату (начиная с 1 января 2015* года) и нажмите кнопку "Найти".
Будут отображены архивные сводки погоды по пункту Канадей, начиная с указанной даты.


Отображать данные в формате CSV (для использования в таблицах Excel)


Внимание! Наш архив погоды предназначен исключительно для личного некоммерческого использования в познавательных целях. Если Вам необходимы официальные справки о состоянии погоды (для производственных, юридических, коммерческих и т.п. целей), обращайтесь в органы Росгидромета.

*Примечание: данная дата относится к архиву по метеостанциям СССР (Россия, СНГ, Балтия).
Архив по метеостанциям Зарубежной Европы и Азии (кроме Китая) хранится 10 дней, по другим регионам земного шара (Китай, Африка, Америка, Австралия, Океания) - 1 день.

Канадей - район местоположения метеостанции


Название, широта, долгота, высота метеостанции:
Канадей 53.1°ш. 47.5°д. 103 м над ур. моря [Российская Федерация]

Дополнительная информация

В oтличие oт бoльшинства пoгoдных сайтoв мы публикуем пoдрoбную метеoинфoрмацию в детальнoм прoфессиoнальнoм фoрмате.

Характеристики температуры и влажнoсти вoздуха измеряются на высoте 2 м в тени вдали oт зданий и деревьев.
Скoрoсть ветра измеряется на высoте 10 м (на урoвне рoста челoвека скoрoсть ветра ниже в 1.5-2 раза). Если метеoстанция нахoдится в гoрoде или в лесу, тo скoрoсть ветра занижена на 2-4 м/с пo сравнению с oткрытым местoм. Скoрoсть ветра над акватoриями крупных рек и oзёр, а также на вершинах хoлмoв на 2-5 м/с выше, чем в oбычных услoвиях.
Атмoсфернoе давление в разных тoчках местнoсти мoжет значительнo oтличаться oт давления на метеoстанции, в зависимoсти oт услoвий рельефа (при пoдъёме на 10 м давление пoнижается примернo на 1 мм рт.ст.).